Miscellaneous Local Product
Issued by NWS North Platte, NE

Home | Current Version | Previous Version | Text Only | Print | Product List | Glossary On
Versions: 1 2 3 4 5 6 7 8 9 10 11 12 13 14 15 16 17 18 19 20 21 22 23 24 25 26 27 28 29 30 31 32 33 34 35 36 37 38 39 40 41 42 43 44 45 46 47 48 49 50
000
AXUS43 KLBF 252010
MISLBF


WESTERN AND NORTH CENTRAL NEBRASKA HOURLY WEATHER ROUNDUP
NATIONAL WEATHER SERVICE NORTH PLATTE NE
300 PM CDT MON AUG 25 2014

***STATIONS NOT REPORTING VARIABLES SUCH AS SKY/WEATHER OR
PRESSURE ARE PROVIDED BY THE NEBRASKA DEPARTMENT OF
ROADS...RAWS...AND APRS NETWORKS...AND ARE NOT UNDER
NATIONAL WEATHER SERVICE QUALITY CONTROL***

...OBSERVATIONS IN AND NEAR THE EASTERN PANHANDLE OF NEBRASKA...

CITY           SKY/WX    TMP DP  RH WIND       PRES   REMARKS
PINE RIDGE     PTSUNNY   71  48  43 VRB3      30.13F
CHADRON        SUNNY     74  42  31 E6        30.12F
ALLIANCE       MOSUNNY   70  47  43 NW6       30.15F
SIDNEY         SUNNY     77  51  40 N6        30.16F
WHITECLAY        N/A     70  45  40 NW3         N/A
RUSHVILLE        N/A     72  39  29 S8          N/A
GORDON           N/A     75  46  35 SW3         N/A
CRESCENT LAKE    N/A     75  51  43 N6          N/A
LISCO            N/A     78  49  36 SW8         N/A
BIG SPRINGS      N/A     73  59  62 CALM        N/A
$$

...OBSERVATIONS IN NORTH CENTRAL NEBRASKA...

CITY           SKY/WX    TMP DP  RH WIND       PRES   REMARKS
VALENTINE      MOSUNNY   72  50  45 N13       30.12S
THEDFORD       SUNNY     77  53  43 CALM      30.11S
AINSWORTH      SUNNY     71  52  51 N12       30.11S
O`NEILL        SUNNY     73  55  53 N9        30.08F
ORD            SUNNY     76  53  44 NE8       30.08F
BROKEN BOW     SUNNY     78  54  43 E10       30.09F
BROWNLEE         N/A     78  48  34 W8          N/A
SPRINGVIEW       N/A     74  54  48 NW3         N/A
ROSE             N/A     78  56  46 SE5         N/A
NEWPORT          N/A     74  54  49 NW9         N/A
SARGENT          N/A     75  53  46 MISG        N/A
COMSTOCK         N/A     80  56  43 NE7         N/A
CHAMBERS         N/A     75  51  43 NE5         N/A
EWING            N/A     74  60  60 CALM        N/A
$$

...OBSERVATIONS IN SOUTHWEST NEBRASKA AND FAR NORTHEAST COLORADO...

CITY           SKY/WX    TMP DP  RH WIND       PRES   REMARKS
WRAY             N/A     82  53  36 SE5       30.11S
IMPERIAL       SUNNY     78  56  46 CALM      30.10F
OGALLALA       SUNNY     76  54  46 CALM      30.11S
NORTH PLATTE   SUNNY     78  55  44 MISG      30.09F
MCCOOK         MOSUNNY   80  61  52 NE8       30.08F
LEXINGTON      SUNNY     74  57  54 E13       30.10F
PAXTON           N/A     77  57  49 CALM        N/A
SUTHERLAND       N/A     82  56  40 NE7         N/A
BRADY            N/A     74  56  53 CALM        N/A
GOTHENBURG       N/A     75  50  41 N6          N/A
CALLAWAY         N/A     74  58  56 E7          N/A
$$

...SOME WEATHER OBSERVATIONS FROM AROUND THE REGION...

CITY           SKY/WX    TMP DP  RH WIND       PRES   REMARKS
DENVER         PTSUNNY   74  53  48 SE9       30.17F
LARAMIE        MOSUNNY   72  39  30 SW13      30.22S
CHEYENNE       MOSUNNY   67  45  45 S17G24    30.21F
SCOTTSBLUFF      N/A     73  48  41 S9        30.16R
RAPID CITY     SUNNY     67  45  45 S5        30.14F
PIERRE         MOSUNNY   69  49  48 NW17G26   30.06F
WINNER         FAIR      73  48  41 NW13G23   30.10R
SIOUX FALLS    MOSUNNY   72  56  57 NW13      30.04F
OMAHA          PTSUNNY   77  59  53 E7        29.99F
GRAND ISLAND   PTSUNNY   68  58  70 NE7       30.11F
KANSAS CITY    MOSUNNY   94  71  47 W5        29.98F HX 101
WICHITA        MOSUNNY   97  62  31 S8        29.94F HX  98
HAYS           SUNNY     93  63  36 SE14G22   29.96F HX  94
LIBERAL        SUNNY    100  55  22 SW12G23   29.97F HX  99
GOODLAND       MOSUNNY   82  59  45 NE12      30.10F
$$



USA.gov is the U.S. government's official web portal to all federal, state and local government web resources and services.